Flight Track Log - Related Links

Times and Time Zones

All times are in EDT time to prevent confusion due to time zone crossing. See the LBQ792 flight status page for this flight to view local times or setup timezone preferences in your user account.


Time Position Orientation Groundspeed Altitude Reporting Facility
EDT Latitude Longitude Course Direction KTS MPH feet Rate Location/Type
Thu 11:15:55 PM 43.0833 -78.9167 200° South 141 162 2,400  Level Buffalo TRACON
Thu 11:16:49 PM 43.0500 -78.9167 180° South 146 168 3,600 1,368 Climbing Buffalo TRACON
Thu 11:17:49 PM 43.0167 -78.9333 200° South 150 173 5,000 1,244 Climbing Buffalo TRACON
Thu 11:18:11 PM 43.0031 -78.9394 198° South 166 191 5,300 1,317 Climbing Cleveland Center
Thu 11:19:11 PM 42.9550 -78.9464 186° South 161 185 6,800 1,450 Climbing Cleveland Center
Thu 11:20:11 PM 42.9094 -78.9589 191° South 161 185 8,200 1,350 Climbing Cleveland Center
Thu 11:21:11 PM 42.8636 -78.9686 189° South 161 185 9,500 1,250 Climbing Cleveland Center
Thu 11:22:11 PM 42.8200 -78.9756 187° South 161 185 10,700 1,350 Climbing Cleveland Center
Thu 11:23:11 PM 42.7742 -78.9850 189° South 167 192 12,200 1,350 Climbing Cleveland Center
Thu 11:24:11 PM 42.7308 -79.0031 197° South 167 192 13,400 1,200 Climbing Cleveland Center
Thu 11:25:11 PM 42.6831 -79.0186 193° South 167 192 14,600 1,200 Climbing Cleveland Center
Thu 11:26:11 PM 42.6353 -79.0394 198° South 173 199 15,800 1,150 Climbing Cleveland Center
Thu 11:27:11 PM 42.5836 -79.0547 192° South 185 213 16,900 1,100 Climbing Cleveland Center
Thu 11:28:11 PM 42.5336 -79.0731 195° South 185 213 18,000 850 Climbing Cleveland Center
Thu 11:29:11 PM 42.4819 -79.0883 192° South 185 213 18,600 900 Climbing Cleveland Center
Thu 11:30:11 PM 42.4278 -79.1064 194° South 191 220 19,800 700 Climbing Cleveland Center
Thu 11:31:11 PM 42.3719 -79.1275 196° South 203 234 20,000 100 Climbing Cleveland Center
Thu 11:32:11 PM 42.3117 -79.1483 194° South 213 245 20,000  Level Cleveland Center
Thu 11:33:11 PM 42.2472 -79.1667 192° South 229 264 20,000  Level Cleveland Center
Thu 11:34:11 PM 42.1789 -79.1933 196° South 242 278 20,000  Level Cleveland Center
Thu 11:35:11 PM 42.1164 -79.2117 192° South 242 278 20,000  Level Cleveland Center
Thu 11:36:11 PM 42.0500 -79.2353 195° South 242 278 20,000  Level Cleveland Center
Thu 11:37:11 PM 41.9836 -79.2564 193° South 242 278 20,000  Level Cleveland Center
Thu 11:38:11 PM 41.9172 -79.2772 193° South 242 278 20,000  Level Cleveland Center
Thu 11:39:11 PM 41.8569 -79.2953 193° South 242 278 20,000  Level Cleveland Center
Thu 11:40:11 PM 41.7925 -79.3189 195° South 242 278 20,000  Level Cleveland Center
Thu 11:41:11 PM 41.7239 -79.3425 194° South 242 278 20,000  Level Cleveland Center
Thu 11:42:11 PM 41.6594 -79.3603 192° South 242 278 20,000  Level Cleveland Center
Thu 11:43:11 PM 41.5931 -79.3836 195° South 242 278 20,000  Level Cleveland Center
Thu 11:44:11 PM 41.5286 -79.4044 194° South 242 278 20,000  Level Cleveland Center
Thu 11:45:11 PM 41.4622 -79.4278 195° South 242 278 20,000  Level Cleveland Center
Thu 11:46:11 PM 41.3917 -79.4483 192° South 242 278 20,000 -350 Level Cleveland Center
Thu 11:47:11 PM 41.3250 -79.4744 196° South 242 278 19,300 -850 Descending Cleveland Center
Thu 11:48:11 PM 41.2522 -79.4950 192° South 253 291 18,300 -850 Descending Cleveland Center
Thu 11:49:11 PM 41.1775 -79.5183 193° South 266 306 17,600 -900 Descending Cleveland Center
Thu 11:50:11 PM 41.1047 -79.5442 195° South 271 312 16,500 -1,050 Descending Cleveland Center
Thu 11:51:11 PM 41.0300 -79.5675 193° South 276 318 15,500 -1,050 Descending Cleveland Center
Thu 11:52:11 PM 40.9594 -79.6069 203° Southwest 276 318 14,400 -1,100 Descending Cleveland Center
Thu 11:53:11 PM 40.8867 -79.6467 202° Southwest 281 323 13,300 -1,100 Descending Cleveland Center
Thu 11:54:11 PM 40.8161 -79.6858 203° Southwest 286 329 12,200 -1,350 Descending Cleveland Center
Thu 11:55:11 PM 40.7456 -79.7253 203° Southwest 286 329 10,600 -1,800 Descending Cleveland Center
Thu 11:56:11 PM 40.6772 -79.7617 202° Southwest 280 322 8,600 -2,000 Descending Cleveland Center
Thu 11:57:11 PM 40.6128 -79.7953 202° Southwest 269 310 6,600 -1,750 Descending Cleveland Center
Thu 11:58:11 PM 40.5525 -79.8261 201° Southwest 269 310 5,100 -1,300 Descending Cleveland Center
Thu 11:59:11 PM 40.4922 -79.8597 203° Southwest 252 290 4,000 -850 Descending Cleveland Center
Fri 12:00:11 AM 40.4383 -79.8956 207° Southwest 240 276 3,400 -600 Descending Cleveland Center
Fri 12:02:00 AM 40.3500 -79.9167 270° West  Level FlightAware Approximate

Login

Don't have an account? Register now (free) for customized features, flight alerts, and more!